Location: Casilda
(33.0440°S, 61.1680°W)
Time: 20:53:54
(UTC-03:00)

ISS - Pass Details

Date: 24 November 2023
Orbit: 415 x 417 km, 51.6° (Epoch: 04 December)

Event Time Altitude Azimuth Distance (km) Brightness Sun altitude
Exits shadow 04:54:05 12° 265° (W) 1,406 -1.6 -11.1°
Maximum altitude 04:56:29 22° 215° (SW) 979 -1.9 -10.7°
Drops below altitude 10° 04:59:13 10° 162° (SSE) 1,518 -0.1 -10.2°
Sets 05:01:39 0° 146° (SE) 2,387 1.5 -9.8°
